Kremmling, CO

1:42 AM MDT on October 18, 2017 (GMT -0600)
Kremmling

Weather History for K20V - July, 2013

Change the Weather History Date:

Tuesday, July 2, 2013

  Actual Average Record
Temperature  
Mean Temperature 62 °F -  
Max Temperature 82 °F - 95 °F (2007)
Min Temperature 42 °F - 39 °F (2004)
Degree Days  
Heating Degree Days 3    
Month to date heating degree days  
Cooling Degree Days 0    
Month to date cooling degree days  
Growing Degree Days 12 (Base 50)    
Moisture  
Dew Point 35 °F    
Average Humidity 42    
Maximum Humidity 81    
Minimum Humidity 11    
Precipitation  
Precipitation 0.00 in - 0.10 in (2008)
Sea Level Pressure  
Sea Level Pressure 30.36 in    
Wind  
Wind Speed 3 mph (NE)    
Max Wind Speed 13 mph    
Max Gust Speed 23 mph    
Visibility 10 miles    
Events Thunderstorm    
T = Trace of Precipitation, MM = Missing Value Source: NWS Daily Summary

Daily Weather History Graph

Daily Weather History Graph

Search for Another Location

Airport or City:

Trip Planner

Search our weather history database for the weather conditions in past years. The results will help you decide how hot, cold, wet, or windy it might be!

Date:

Astronomy

Jul. 02, 2013 Rise Set
Actual Time 5:40 AM MDT 8:38 PM MDT
Civil Twilight 5:08 AM MDT 9:10 PM MDT
Nautical Twilight 4:26 AM MDT 9:52 PM MDT
Astronomical Twilight 3:38 AM MDT 10:40 PM MDT
Moon 1:45 AM MDT (7/2) 3:54 PM MDT (7/2)
Length of Visible Light 16h 02m
Length of Day
14h 57m
Waning Crescent, 26% of the Moon is Illuminated
Jul 2
Waning Crescent
Jul 8
New
Jul 15
First Quarter
Jul 22
Full
Jul 29
Last Quarter

Hourly Weather History & Observations

Time (MDT) Temp. Windchill Dew Point Humidity Pressure Visibility Wind Dir Wind Speed Gust Speed Precip Events Conditions
12:16 AM 53.6 °F - 41.0 °F 62% 30.41 in 10.0 mi East 4.6 mph - N/A   Clear
12:35 AM 53.6 °F - 44.6 °F 72% 30.41 in 10.0 mi Calm Calm - N/A   Clear
12:56 AM 51.8 °F - 42.8 °F 71% 30.41 in 10.0 mi Calm Calm - N/A   Clear
1:16 AM 53.6 °F - 42.8 °F 67% 30.42 in 10.0 mi Calm Calm - N/A   Clear
1:36 AM 51.8 °F - 42.8 °F 71% 30.42 in 10.0 mi Calm Calm - N/A   Clear
1:56 AM 50.0 °F - 41.0 °F 71% 30.42 in 10.0 mi Calm Calm - N/A   Clear
2:16 AM 50.0 °F - 41.0 °F 71% 30.42 in 10.0 mi Calm Calm - N/A   Clear
2:36 AM 50.0 °F - 41.0 °F 71% 30.42 in 10.0 mi Calm Calm - N/A   Clear
2:56 AM 50.0 °F - 41.0 °F 71% 30.42 in 10.0 mi Calm Calm - N/A   Clear
3:16 AM 50.0 °F - 42.8 °F 76% 30.42 in 10.0 mi Calm Calm - N/A   Clear
3:35 AM 48.2 °F - 41.0 °F 76% 30.41 in 10.0 mi Calm Calm - N/A   Clear
3:56 AM 46.4 °F - 39.2 °F 76% 30.41 in 10.0 mi Calm Calm - N/A   Clear
4:16 AM 44.6 °F - 37.4 °F 76% 30.42 in 10.0 mi Calm Calm - N/A   Clear
4:36 AM 44.6 °F - 37.4 °F 76% 30.43 in 10.0 mi Calm Calm - N/A   Clear
4:56 AM 44.6 °F - 37.4 °F 76% 30.44 in 10.0 mi Calm Calm - N/A   Clear
5:16 AM 42.8 °F - 37.4 °F 81% 30.44 in 10.0 mi Calm Calm - N/A   Clear
5:36 AM 42.8 °F - 37.4 °F 81% 30.44 in 10.0 mi Calm Calm - N/A   Clear
5:56 AM 42.8 °F 41.1 °F 37.4 °F 81% 30.45 in 10.0 mi SE 3.5 mph - N/A   Clear
6:16 AM 42.8 °F 41.1 °F 37.4 °F 81% 30.44 in 10.0 mi East 3.5 mph - N/A   Clear
6:35 AM 44.6 °F - 37.4 °F 76% 30.45 in 10.0 mi Calm Calm - N/A   Clear
6:56 AM 50.0 °F - 41.0 °F 71% 30.45 in 10.0 mi Calm Calm - N/A   Clear
7:16 AM 50.0 °F - 41.0 °F 71% 30.45 in 10.0 mi Calm Calm - N/A   Clear
7:36 AM 51.8 °F - 41.0 °F 67% 30.45 in 10.0 mi Calm Calm - N/A   Clear
8:15 AM 53.6 °F - 41.0 °F 62% 30.44 in 10.0 mi Calm Calm - N/A   Clear
8:36 AM 55.4 °F - 41.0 °F 58% 30.44 in 10.0 mi Calm Calm - N/A   Clear
8:56 AM 57.2 °F - 39.2 °F 51% 30.44 in 10.0 mi Calm Calm - N/A   Clear
9:16 AM 59.0 °F - 41.0 °F 51% 30.43 in 10.0 mi North 3.5 mph - N/A   Clear
9:36 AM 60.8 °F - 41.0 °F 48% 30.42 in 10.0 mi Calm Calm - N/A   Clear
9:55 AM 62.6 °F - 41.0 °F 45% 30.41 in 10.0 mi Calm Calm - N/A   Clear
10:16 AM 66.2 °F - 41.0 °F 40% 30.41 in 10.0 mi Calm Calm - N/A   Clear
10:36 AM 69.8 °F - 42.8 °F 38% 30.40 in 10.0 mi South 3.5 mph - N/A   Clear
10:56 AM 69.8 °F - 39.2 °F 33% 30.40 in 10.0 mi Calm Calm - N/A   Clear
11:16 AM 73.4 °F - 35.6 °F 25% 30.39 in 10.0 mi WSW 6.9 mph - N/A   Clear
11:36 AM 73.4 °F - 35.6 °F 25% 30.38 in 10.0 mi NNW 3.5 mph - N/A   Clear
11:56 AM 73.4 °F - 33.8 °F 23% 30.37 in 10.0 mi Calm Calm - N/A   Clear
12:16 PM 77.0 °F - 32.0 °F 19% 30.37 in 10.0 mi North 11.5 mph - N/A   Scattered Clouds
12:36 PM 73.4 °F - 32.0 °F 22% 30.36 in 10.0 mi ENE 4.6 mph - N/A   Mostly Cloudy
12:55 PM 78.8 °F - 32.0 °F 18% 30.36 in 10.0 mi ENE 6.9 mph - N/A   Scattered Clouds
1:16 PM 77.0 °F - 30.2 °F 18% 30.34 in 10.0 mi Calm Calm - N/A   Mostly Cloudy
1:36 PM 78.8 °F - 30.2 °F 17% 30.34 in 10.0 mi North 5.8 mph - N/A   Mostly Cloudy
1:56 PM 78.8 °F - 30.2 °F 17% 30.33 in 10.0 mi East 5.8 mph - N/A   Scattered Clouds
2:15 PM 78.8 °F - 30.2 °F 17% 30.32 in 10.0 mi North 12.7 mph 17.3 mph N/A   Mostly Cloudy
2:36 PM 80.6 °F - 28.4 °F 15% 30.32 in 10.0 mi North 3.5 mph - N/A   Mostly Cloudy
2:55 PM 82.4 °F - 26.6 °F 13% 30.30 in 10.0 mi NNW 8.1 mph 21.9 mph N/A   Scattered Clouds
3:16 PM 80.6 °F - 26.6 °F 14% 30.31 in 10.0 mi NNE 10.4 mph - N/A   Mostly Cloudy
3:35 PM 78.8 °F - 19.4 °F 11% 30.30 in 10.0 mi NNW 12.7 mph 23.0 mph N/A   Scattered Clouds
3:56 PM 80.6 °F - 26.6 °F 14% 30.29 in 10.0 mi ENE 6.9 mph - N/A   Scattered Clouds
4:16 PM 80.6 °F - 24.8 °F 13% 30.28 in 10.0 mi North 11.5 mph 18.4 mph N/A   Mostly Cloudy
4:36 PM 78.8 °F - 28.4 °F 16% 30.29 in 10.0 mi NNE 10.4 mph 20.7 mph N/A   Mostly Cloudy
4:56 PM 80.6 °F - 24.8 °F 13% 30.29 in 10.0 mi NNE 12.7 mph 19.6 mph N/A   Scattered Clouds
5:16 PM 80.6 °F - 26.6 °F 14% 30.28 in 10.0 mi NNE 9.2 mph 16.1 mph N/A   Clear
5:36 PM 80.6 °F - 26.6 °F 14% 30.27 in 10.0 mi NE 6.9 mph - N/A Thunderstorm Clear
5:56 PM 80.6 °F - 28.4 °F 15% 30.27 in 10.0 mi NE 8.1 mph 16.1 mph N/A   Scattered Clouds
6:15 PM 78.8 °F - 28.4 °F 16% 30.27 in 10.0 mi NNE 10.4 mph 19.6 mph N/A   Scattered Clouds
6:36 PM 80.6 °F - 26.6 °F 14% 30.27 in 10.0 mi NE 10.4 mph - N/A   Scattered Clouds
6:56 PM 78.8 °F - 23.0 °F 13% 30.26 in 10.0 mi NNE 10.4 mph 20.7 mph N/A   Scattered Clouds
7:16 PM 78.8 °F - 23.0 °F 13% 30.27 in 10.0 mi North 9.2 mph - N/A   Clear
7:36 PM 73.4 °F - 26.6 °F 18% 30.27 in 10.0 mi NE 6.9 mph - N/A   Clear
7:55 PM 77.0 °F - 26.6 °F 16% 30.27 in 10.0 mi NNE 8.1 mph - N/A   Clear
8:16 PM 73.4 °F - 30.2 °F 20% 30.27 in 10.0 mi NNE 8.1 mph - N/A   Clear
8:36 PM 69.8 °F - 30.2 °F 23% 30.27 in 10.0 mi NE 5.8 mph - N/A   Clear
8:56 PM 69.8 °F - 32.0 °F 25% 30.27 in 10.0 mi NNE 6.9 mph - N/A   Scattered Clouds
9:16 PM 66.2 °F - 32.0 °F 28% 30.28 in 10.0 mi East 5.8 mph - N/A   Scattered Clouds
9:36 PM 66.2 °F - 35.6 °F 32% 30.29 in 10.0 mi East 10.4 mph - N/A   Clear
9:56 PM 64.4 °F - 35.6 °F 34% 30.30 in 10.0 mi ESE 4.6 mph - N/A   Clear
10:16 PM 62.6 °F - 37.4 °F 39% 30.31 in 10.0 mi East 5.8 mph - N/A   Clear
10:35 PM 60.8 °F - 37.4 °F 42% 30.31 in 10.0 mi East 3.5 mph - N/A   Clear
10:56 PM 59.0 °F - 37.4 °F 45% 30.32 in 10.0 mi East 5.8 mph - N/A   Clear
11:16 PM 59.0 °F - 39.2 °F 48% 30.32 in 10.0 mi Calm Calm - N/A   Clear
11:36 PM 59.0 °F - 39.2 °F 48% 30.32 in 10.0 mi Calm Calm - N/A   Clear
11:56 PM 55.4 °F - 39.2 °F 54% 30.32 in 10.0 mi NE 3.5 mph - N/A   Clear